Date,TemperatureHighF,TemperatureAvgF,TemperatureLowF,DewpointHighF,DewpointAvgF,DewpointLowF,HumidityHigh,HumidityAvg,HumidityLow,PressureMaxIn,PressureMinIn,WindSpeedMaxMPH,WindSpeedAvgMPH,GustSpeedMaxMPH,PrecipitationSumIn
2013-1-1,23.9,16.9,8.2,18.2,11.2,4.6,86,78,62,30.22,30.09,8,4,0,0.00
2013-1-2,36.1,21.8,9.1,26.9,16.5,5.3,90,80,69,30.17,30.01,12,5,0,0.00
2013-1-3,41.0,28.3,18.0,32.7,23.5,15.6,93,82,65,30.33,30.16,6,2,0,0.00
2013-1-4,42.8,28.7,15.3,30.0,22.6,12.4,91,79,59,30.33,30.16,16,5,0,0.00
2013-1-5,42.6,34.7,29.1,36.4,29.9,24.2,88,83,78,30.17,29.98,14,6,0,0.00
2013-1-6,41.2,29.2,22.1,26.3,21.8,17.5,85,74,51,30.29,30.05,6,3,0,0.00
2013-1-7,48.9,35.3,23.9,31.9,26.0,18.9,84,70,50,30.22,29.98,15,7,0,0.00
2013-1-8,53.6,41.6,28.9,39.1,32.4,24.1,83,70,53,30.08,29.88,18,7,0,0.00
2013-1-9,53.2,39.9,27.1,39.7,32.8,25.6,96,77,59,30.34,30.08,7,2,0,0.00
2013-1-10,49.3,41.8,36.9,48.8,39.2,29.1,98,91,70,30.27,29.63,13,6,0,0.23
2013-1-11,62.2,54.5,48.7,51.9,49.0,47.7,98,83,66,29.67,29.49,23,10,0,0.01
2013-1-12,55.6,32.5,22.3,48.2,25.4,15.6,94,76,46,29.99,29.61,11,6,0,0.00
2013-1-13,25.9,17.8,9.7,15.0,10.4,5.2,87,72,60,30.27,29.93,8,3,0,0.00
2013-1-14,25.7,15.7,5.7,13.3,9.0,2.4,89,76,55,30.42,30.27,6,2,0,0.00
2013-1-15,28.4,17.3,8.6,17.7,11.5,5.5,90,79,53,30.32,30.09,7,2,0,0.00
2013-1-16,42.6,28.1,14.4,28.4,20.1,10.1,86,72,55,30.09,29.91,15,6,0,0.00
2013-1-17,43.3,33.7,27.7,30.3,27.9,24.1,96,80,55,30.40,30.07,9,4,0,0.00
2013-1-18,56.1,41.7,30.0,38.0,31.9,25.8,84,69,49,30.34,29.95,21,11,0,0.00
2013-1-19,61.3,47.0,39.2,40.9,34.9,30.3,80,64,41,30.14,29.88,16,7,0,0.00
2013-1-20,38.7,26.9,18.0,30.5,16.0,9.3,81,63,50,30.30,30.14,10,6,0,0.00
2013-1-21,23.5,17.0,11.5,11.2,5.0,-1.9,82,60,36,30.35,30.29,11,4,0,0.00
2013-1-22,25.9,18.0,11.8,11.2,5.9,1.3,70,59,50,30.35,30.20,8,5,0,0.00
2013-1-23,47.7,28.7,11.3,28.1,17.5,6.8,83,64,45,30.33,30.07,10,4,0,0.00
2013-1-24,25.5,19.1,9.3,15.0,8.1,1.4,76,62,54,30.46,30.09,16,9,0,0.00
2013-1-25,46.9,32.4,19.8,26.1,18.4,10.1,74,56,43,30.15,30.04,11,2,0,0.00
2013-1-26,49.8,35.1,25.5,32.0,25.9,20.3,84,70,50,30.24,30.03,10,5,0,0.00
2013-1-27,61.0,49.0,35.4,56.7,45.2,27.8,98,87,61,30.03,29.67,16,9,0,0.14
2013-1-28,74.1,64.5,55.6,63.5,59.5,54.8,97,85,64,29.78,29.59,21,10,0,0.04
2013-1-29,66.9,53.1,36.1,63.3,51.7,35.6,98,95,85,29.58,29.35,24,10,0,1.66
2013-1-30,36.0,27.7,20.3,35.5,24.1,15.1,98,86,71,29.88,29.34,22,11,0,0.01
2013-1-31,25.7,17.7,6.1,19.3,10.4,-1.6,91,73,60,30.40,29.85,21,8,0,0.00